Regional Weather Roundup
Issued by NWS

Home | Current Version | Previous Version | Graphics & Text | Print | Product List | Glossary On
Versions: 1 2 3 4 5 6 7 8 9 10 11 12 13 14 15 16 17 18 19 20 21 22 23 24 25 26 27 28 29 30 31 32 33 34 35 36 37 38 39 40 41 42 43 44 45 46 47 48 49 50
000
ASUS43 KDTX 121901
RWRMI
MICHIGAN HOURLY REGIONAL WEATHER ROUNDUP
NATIONAL WEATHER SERVICE DETROIT/PONTIAC MI
200 PM EST TUE DEC 12 2017

NOTE: "FAIR" INDICATES FEW OR NO CLOUDS BELOW 12,000 FEET WITH NO
SIGNIFICANT WEATHER AND/OR OBSTRUCTION TO VISIBILITY.

MIZ047>049-052>055-059>063-066>070-074>076-081>083-122000-
SOUTHEAST LOWER MICHIGAN

CITY           SKY/WX    TMP DP  RH WIND       PRES   REMARKS
ALMA           CLOUDY    19   4  51 NW16      29.88S WCI   5
ANN ARBOR      MOSUNNY   19   4  51 W21G32    29.84S WCI   3
BAD AXE        CLOUDY    14   1  54 NW17G25   29.79R WCI  -2
CARO           CLOUDY    16   2  53 NW18G28   29.82S WCI  -1
DETROIT CITY   MOSUNNY   18   0  45 NW21G28   29.83S WCI   1
DETROIT        PTSUNNY   21   4  47 NW20G31   29.85S WCI   6
FLINT          PTSUNNY   17   3  54 NW17G28   29.84S WCI   1
GROSSE ILE     CLOUDY    20   5  51 NW21G30   29.83S WCI   4
HILLSDALE      PTSUNNY   21   3  45 NW20      29.84F WCI   6
HOWELL         CLOUDY    18   7  61 NW13G23   29.84S WCI   4

CITY           SKY/WX    TMP DP  RH WIND       PRES   REMARKS
JACKSON        PTSUNNY   18   8  65 NW9G21    29.86F WCI   7
LAMBERTVILLE   SUNNY     20   8  58 NW8G17    29.87F WCI  10
LANSING        FLURRIES  18   9  68 NW10G22   29.88S WCI   6
LAPEER         PTSUNNY   17  -1  45 NW16G28   29.81S WCI   2
MASON          CLOUDY    20   4  49 NW17G23   29.86S WCI   6
MONROE         MOSUNNY   21   1  42 NW15G24   29.85S WCI   8
MT. CLEMENS    MOSUNNY   19  -1  40 NW16G30   29.80S WCI   4
PONTIAC        CLOUDY    16   4  59 NW20G29   29.80S WCI  -1
PORT HOPE        N/A     16   4  59 NW25G38   29.76S WCI  -3
PORT HURON     CLOUDY    16   1  53 NW20G25   29.79F WCI  -1
TRI CITIES     PTSUNNY   17   3  54 NW18      29.85F WCI   1
MIDLAND        PTSUNNY   18   2  50 NW16      29.85S WCI   3
TROY           CLOUDY    19   2  47 NW22G28   29.85S WCI   2
SAGINAW HB     MOSUNNY   18   5  57 NW20G25   29.84S WCI   1
$$
MIZ043>046-050>051-056>058-064>065-071>073-077>080-122000-
SOUTHWEST LOWER MICHIGAN

CITY           SKY/WX    TMP DP  RH WIND       PRES   REMARKS
BATTLE CREEK   PTSUNNY   22   6  50 NW24G30   29.89F WCI   5
BENTON HARBOR  LGT SNOW  23  32 100 MISG      29.97F VSB 1
BIG RAPIDS     CLOUDY    17   7  65 NW13G20   29.87S WCI   3
COLDWATER      CLOUDY    21   4  49 NW10G17   29.90S WCI  10
FREMONT        PTSUNNY   20   8  59 NW21      29.92S WCI   4
HOLLAND        LGT SNOW  19  13  77 N8        29.96S WCI   9
GRAND RAPIDS   PTSUNNY   21   9  59 NW15      29.91S WCI   8
IONIA          LGT SNOW  17  13  81 NW10      29.89R VSB 1   WCI   5
KALAMAZOO      MOSUNNY   21   8  57 NW18G30   29.92S WCI   6
LUDINGTON      CLOUDY    19   5  56 NW9G23    29.94S WCI   7
MARSHALL       PTSUNNY   20   2  45 NW10G21   29.88F WCI   8
MOUNT PLEASANT MOSUNNY   20   3  46 NW12G21   29.86S WCI   8
MUSKEGON       HVY SNOW  18  12  77 N20       29.96S VSB 1/4 WCI   2
SOUTH HAVEN    CLOUDY    25  10  53 NW17G28   29.96S HAZE    WCI  12
$$
MIZ016>042-122000-
NORTHERN LOWER MICHIGAN

CITY           SKY/WX    TMP DP  RH WIND       PRES   REMARKS
ALPENA         MIX PCPN  10   4  76 NW13      29.81S WCI  -5
BEAVER ISLAND  CLOUDY    15   3  61 NW12G28   29.91S WCI   1
BELLAIRE       CLOUDY    15   7  71 N14G20    29.90S WCI   1
CADILLAC       CLOUDY    14   2  60 N14G26    29.82S WCI  -1
CHARLEVOIX     LGT SNOW  15   6  67 NW13G25   29.93R WCI   2
FRANKFORT      LGT SNOW  20  10  65 NW17G29   29.92F WCI   5
GAYLORD        CLOUDY     9  -1  64 VRB7G18   29.81S WCI  -2
GRAYLING       PTSUNNY   11   0  60 NW16G26   29.83R WCI  -5
HARBOR SPRINGS CLOUDY    12   0  58 NW10G20   29.89R WCI  -1
HOUGHTON LAKE  PTSUNNY   13   0  56 NW21G32   29.83R WCI  -5
MANISTEE       LGT SNOW  19  10  68 NW17G32   29.92F WCI   4
OSCODA         MOSUNNY   14  -3  47 NW24G33   29.79S WCI  -6
PELLSTON       CLOUDY    11   2  67 NW17G24   29.89S WCI  -6
ROGERS CITY    LGT SNOW  10   5  80 NW18G29   29.84S WCI  -8
TRAVERSE CITY  CLOUDY    18   4  54 N14G26    29.89F WCI   4
$$
MIZ007>008-015-122000-
EASTERN UPPER MICHIGAN

CITY           SKY/WX    TMP DP  RH WIND       PRES   REMARKS
KINROSS        LGT SNOW   6   0  76 N12       29.87S WCI  -9
MACKINAC ISLAN CLOUDY    14   4  63 NW15G23   29.86S HAZE    WCI  -1
NEWBERRY       LGT SNOW   9   7  89 N10       29.89S VSB 1   WCI  -5
S. S. MARIE    MOSUNNY    6  -5  60 NW8       29.88S WCI  -7
MUNISING         N/A     18  14  84 N21       29.93F WCI   1
$$
MIZ004>006-011>014-085-122000-
CENTRAL UPPER MICHIGAN

CITY           SKY/WX    TMP DP  RH WIND       PRES   REMARKS
MANISTIQUE     LGT SNOW  13   4  66 N9        29.92F WCI   1
ESCANABA       PTSUNNY   16   2  54 NW13      29.96F WCI   2
SAWYER-GWINN   LGT SNOW  10   3  72 NW17G23   29.92F WCI  -7
$$
MIZ001>003-009>011-084-122000-
WESTERN UPPER MICHIGAN

CITY           SKY/WX    TMP DP  RH WIND       PRES   REMARKS
IRON MOUNTAIN  CLOUDY    14   4  64 NW13      29.93F WCI   0
HOUGHTON       LGT SNOW  12   3  67 NW10      29.94F WCI  -1
COPPER HARBOR    N/A     13   6  74 NE14      29.97F WCI  -2
IRONWOOD       LGT SNOW   9   3  77 SW10      30.00F WCI  -5
$$

ABBREVIATIONS USED IN REMARKS
   TC - TEMPERATURE IN CELSIUS
  WCI - WIND CHILL INDEX
   HX - HEAT INDEX
  VSB - VISIBILITY





USA.gov is the U.S. government's official web portal to all federal, state and local government web resources and services.